| time (UTC) | temp F | wind direction | speed knots | gust knots | rain 1hr in | rain 24hr in | rain mn in | humidity % | barometer mb |
| 20260510231056 | 67 | 252 | 3.5 | 9.6 | 0.00 | 0.00 | 0.00 | 79 | 1012.2 |
| 20260510230557 | 67 | 267 | 5.2 | 9.6 | 0.00 | 0.00 | 0.00 | 77 | 1012.1 |
| 20260510230059 | 67 | 206 | 4.3 | 9.6 | 0.00 | 0.00 | 0.00 | 78 | 1012.2 |
| 20260510225556 | 67 | 135 | 5.2 | 9.6 | 0.00 | 0.00 | 0.00 | 77 | 1012.2 |
| 20260510225056 | 67 | 184 | 3.5 | 8.7 | 0.00 | 0.00 | 0.00 | 77 | 1012.2 |
| 20260510224601 | 68 | 186 | 4.3 | 7.8 | 0.00 | 0.00 | 0.00 | 77 | 1012.1 |
| 20260510224057 | 68 | 292 | 3.5 | 9.6 | 0.00 | 0.00 | 0.00 | 77 | 1012.1 |
| 20260510223556 | 67 | 225 | 3.5 | 10.4 | 0.00 | 0.00 | 0.00 | 77 | 1012.2 |
| 20260510223055 | 68 | 219 | 3.5 | 10.4 | 0.00 | 0.00 | 0.00 | 77 | 1012.2 |
| 20260510222556 | 68 | 198 | 4.3 | 10.4 | 0.00 | 0.00 | 0.00 | 76 | 1012.3 |
| 20260510222100 | 68 | 207 | 3.5 | 10.4 | 0.00 | 0.00 | 0.00 | 77 | 1012.2 |
| 20260510221608 | 68 | 266 | 5.2 | 10.4 | 0.00 | 0.00 | 0.00 | 76 | 1012.2 |
| 20260510221101 | 68 | 184 | 3.5 | 9.6 | 0.00 | 0.00 | 0.00 | 76 | 1012.2 |
| 20260510220556 | 68 | 151 | 3.5 | 7.8 | 0.00 | 0.00 | 0.00 | 76 | 1012.3 |
| 20260510220058 | 68 | 235 | 3.5 | 7.8 | 0.00 | 0.00 | 0.00 | 76 | 1012.3 |
| 20260510215555 | 68 | 269 | 2.6 | 9.6 | 0.00 | 0.00 | 0.00 | 78 | 1012.4 |
| 20260510215059 | 67 | 215 | 3.5 | 9.6 | 0.00 | 0.00 | 0.00 | 78 | 1012.4 |
| 20260510214556 | 67 | 300 | 5.2 | 11.3 | 0.00 | 0.00 | 0.00 | 77 | 1012.3 |
| 20260510214056 | 67 | 254 | 5.2 | 11.3 | 0.00 | 0.00 | 0.00 | 77 | 1012.4 |
| 20260510213557 | 68 | 220 | 5.2 | 9.6 | 0.00 | 0.00 | 0.00 | 75 | 1012.4 |
| 20260510213054 | 68 | 173 | 2.6 | 8.7 | 0.00 | 0.00 | 0.00 | 77 | 1012.5 |
| 20260510212556 | 68 | 252 | 4.3 | 10.4 | 0.00 | 0.00 | 0.00 | 77 | 1012.5 |
| 20260510212055 | 68 | 212 | 4.3 | 10.4 | 0.00 | 0.00 | 0.00 | 77 | 1012.5 |
| 20260510211554 | 68 | 217 | 3.5 | 9.6 | 0.00 | 0.00 | 0.00 | 77 | 1012.5 |
| 20260510211055 | 68 | 281 | 3.5 | 9.6 | 0.00 | 0.00 | 0.00 | 77 | 1012.6 |
| 20260510210555 | 67 | 277 | 4.3 | 8.7 | 0.00 | 0.00 | 0.00 | 77 | 1012.5 |
| 20260510210100 | 67 | 192 | 4.3 | 8.7 | 0.00 | 0.00 | 0.00 | 77 | 1012.7 |
| 20260510205558 | 67 | 216 | 3.5 | 11.3 | 0.00 | 0.00 | 0.00 | 79 | 1012.7 |
| 20260510205055 | 67 | 194 | 6.1 | 11.3 | 0.00 | 0.00 | 0.00 | 78 | 1012.7 |
| 20260510204607 | 67 | 165 | 4.3 | 8.7 | 0.00 | 0.00 | 0.00 | 78 | 1012.7 |
| 20260510204055 | 67 | 200 | 4.3 | 11.3 | 0.00 | 0.00 | 0.00 | 78 | 1012.7 |
| 20260510203558 | 67 | 225 | 5.2 | 11.3 | 0.00 | 0.00 | 0.00 | 79 | 1012.7 |
| 20260510203100 | 67 | 263 | 7.8 | 11.3 | 0.00 | 0.00 | 0.00 | 77 | 1012.8 |
| 20260510202557 | 67 | 269 | 5.2 | 10.4 | 0.00 | 0.00 | 0.00 | 77 | 1012.7 |
| 20260510202059 | 67 | 186 | 4.3 | 10.4 | 0.00 | 0.00 | 0.00 | 77 | 1012.9 |
| 20260510201559 | 68 | 191 | 4.3 | 9.6 | 0.00 | 0.00 | 0.00 | 75 | 1012.8 |
| 20260510201057 | 68 | 271 | 4.3 | 9.6 | 0.00 | 0.00 | 0.00 | 77 | 1012.8 |
| 20260510200555 | 68 | 182 | 5.2 | 11.3 | 0.00 | 0.00 | 0.00 | 76 | 1012.8 |
| 20260510200117 | 68 | 232 | 3.5 | 11.3 | 0.00 | 0.00 | 0.00 | 77 | 1012.8 |
| 20260510195557 | 68 | 200 | 3.5 | 9.6 | 0.00 | 0.00 | 0.00 | 76 | 1012.7 |
| 20260510195056 | 68 | 192 | 4.3 | 9.6 | 0.00 | 0.00 | 0.00 | 76 | 1012.7 |
| 20260510194611 | 68 | 209 | 3.5 | 9.6 | 0.00 | 0.00 | 0.00 | 76 | 1012.8 |
| 20260510194057 | 68 | 281 | 4.3 | 9.6 | 0.00 | 0.00 | 0.00 | 76 | 1012.8 |
| 20260510193559 | 68 | 177 | 4.3 | 9.6 | 0.00 | 0.00 | 0.00 | 74 | 1012.8 |
| 20260510193105 | 68 | 255 | 5.2 | 9.6 | 0.00 | 0.00 | 0.00 | 75 | 1012.8 |
| 20260510192601 | 69 | 196 | 4.3 | 8.7 | 0.00 | 0.00 | 0.00 | 74 | 1012.8 |
| 20260510192056 | 69 | 265 | 4.3 | 8.7 | 0.00 | 0.00 | 0.00 | 76 | 1012.9 |
| 20260510191605 | 68 | 264 | 3.5 | 9.6 | 0.00 | 0.00 | 0.00 | 76 | 1012.8 |
| 20260510191056 | 68 | 223 | 4.3 | 9.6 | 0.00 | 0.00 | 0.00 | 75 | 1012.8 |
| 20260510190555 | 69 | 205 | 2.6 | 8.7 | 0.00 | 0.00 | 0.00 | 75 | 1012.8 |
| 20260510190057 | 69 | 171 | 3.5 | 9.6 | 0.00 | 0.00 | 0.00 | 74 | 1012.8 |
| 20260510185555 | 69 | 163 | 5.2 | 9.6 | 0.00 | 0.00 | 0.00 | 74 | 1012.8 |
| 20260510185055 | 69 | 256 | 4.3 | 8.7 | 0.00 | 0.00 | 0.00 | 74 | 1012.8 |
| 20260510184553 | 70 | 159 | 4.3 | 10.4 | 0.00 | 0.00 | 0.00 | 72 | 1012.9 |
| 20260510184055 | 70 | 200 | 4.3 | 10.4 | 0.00 | 0.00 | 0.00 | 71 | 1012.9 |
| 20260510183555 | 71 | 194 | 3.5 | 8.7 | 0.00 | 0.00 | 0.00 | 70 | 1012.8 |
| 20260510183101 | 71 | 178 | 1.7 | 8.7 | 0.00 | 0.00 | 0.00 | 69 | 1012.8 |
| 20260510182557 | 71 | 180 | 0.9 | 6.1 | 0.00 | 0.00 | 0.00 | 71 | 1012.8 |
| 20260510182056 | 70 | 206 | 0.9 | 6.1 | 0.00 | 0.00 | 0.00 | 72 | 1012.8 |
| 20260510181552 | 69 | 296 | 3.5 | 6.1 | 0.00 | 0.00 | 0.00 | 72 | 1012.8 |
| 20260510181058 | 69 | 219 | 0.9 | 6.1 | 0.00 | 0.00 | 0.00 | 72 | 1012.8 |
| 20260510180555 | 69 | 195 | 2.6 | 6.1 | 0.00 | 0.00 | 0.00 | 73 | 1012.7 |
| 20260510180056 | 69 | 237 | 2.6 | 6.1 | 0.00 | 0.00 | 0.00 | 73 | 1012.7 |
| 20260510175555 | 69 | 230 | 0.9 | 3.5 | 0.00 | 0.00 | 0.00 | 73 | 1012.7 |
| 20260510175056 | 69 | 250 | 0.9 | 6.1 | 0.00 | 0.00 | 0.00 | 74 | 1012.7 |
| 20260510174600 | 68 | 0 | 1.7 | 6.1 | 0.00 | 0.00 | 0.00 | 74 | 1012.7 |
| 20260510174057 | 68 | 0 | 2.6 | 5.2 | 0.00 | 0.00 | 0.00 | 75 | 1012.7 |
| 20260510173555 | 68 | 0 | 1.7 | 3.5 | 0.00 | 0.00 | 0.00 | 74 | 1012.6 |
| 20260510173108 | 68 | 219 | 0.0 | 4.3 | 0.00 | 0.00 | 0.00 | 76 | 1012.6 |
| 20260510172556 | 68 | 336 | 0.9 | 5.2 | 0.00 | 0.00 | 0.00 | 76 | 1012.6 |
| 20260510172055 | 67 | 0 | 0.9 | 5.2 | 0.00 | 0.00 | 0.00 | 77 | 1012.7 |
| 20260510171559 | 67 | 192 | 0.9 | 6.1 | 0.00 | 0.00 | 0.00 | 78 | 1012.7 |
| 20260510171057 | 66 | 0 | 1.7 | 6.1 | 0.00 | 0.00 | 0.00 | 79 | 1012.8 |
| 20260510170556 | 66 | 223 | 0.9 | 5.2 | 0.00 | 0.00 | 0.00 | 80 | 1012.8 |
| 20260510170107 | 66 | 257 | 1.7 | 5.2 | 0.00 | 0.00 | 0.00 | 80 | 1012.8 |
| 20260510165557 | 65 | 167 | 0.9 | 3.5 | 0.00 | 0.00 | 0.00 | 81 | 1012.8 |
| 20260510165055 | 64 | 86 | 0.0 | 4.3 | 0.00 | 0.00 | 0.00 | 83 | 1012.6 |
| 20260510164559 | 64 | 0 | 1.7 | 4.3 | 0.00 | 0.00 | 0.00 | 83 | 1012.6 |
| 20260510164055 | 63 | 0 | 0.9 | 4.3 | 0.00 | 0.00 | 0.00 | 84 | 1012.6 |
| 20260510163557 | 63 | 182 | 0.9 | 6.1 | 0.00 | 0.00 | 0.00 | 85 | 1012.7 |
| 20260510163058 | 63 | 219 | 2.6 | 6.1 | 0.00 | 0.00 | 0.00 | 85 | 1012.5 |
| 20260510162556 | 63 | 267 | 1.7 | 4.3 | 0.00 | 0.00 | 0.00 | 85 | 1012.6 |
| 20260510162055 | 63 | 232 | 1.7 | 4.3 | 0.00 | 0.00 | 0.00 | 85 | 1012.5 |
| 20260510161557 | 63 | 211 | 0.0 | 2.6 | 0.00 | 0.00 | 0.00 | 86 | 1012.4 |
| 20260510161055 | 62 | 0 | 0.0 | 1.7 | 0.00 | 0.00 | 0.00 | 87 | 1012.4 |
| 20260510160557 | 62 | 0 | 0.9 | 1.7 | 0.00 | 0.00 | 0.00 | 87 | 1012.3 |
| 20260510160055 | 62 | 0 | 0.0 | 3.5 | 0.00 | 0.00 | 0.00 | 88 | 1012.3 |
| 20260510155559 | 62 | 0 | 0.0 | 3.5 | 0.00 | 0.00 | 0.00 | 87 | 1012.3 |
| 20260510155055 | 61 | 238 | 0.9 | 3.5 | 0.00 | 0.00 | 0.00 | 87 | 1012.3 |
| 20260510154559 | 62 | 202 | 1.7 | 3.5 | 0.00 | 0.00 | 0.00 | 88 | 1012.2 |
| 20260510154056 | 61 | 211 | 0.0 | 1.7 | 0.00 | 0.00 | 0.00 | 89 | 1012.1 |
| 20260510153555 | 61 | 0 | 0.0 | 1.7 | 0.00 | 0.00 | 0.00 | 89 | 1012.1 |
| 20260510153056 | 61 | 0 | 0.0 | 1.7 | 0.00 | 0.00 | 0.00 | 90 | 1012.2 |
| 20260510152559 | 61 | 0 | 0.0 | 1.7 | 0.00 | 0.00 | 0.00 | 90 | 1012.1 |
| 20260510152055 | 60 | 247 | 0.0 | 3.5 | 0.00 | 0.00 | 0.00 | 90 | 1012.2 |
| 20260510151601 | 60 | 0 | 0.0 | 3.5 | 0.00 | 0.00 | 0.00 | 90 | 1012.2 |
| 20260510151055 | 60 | 197 | 0.9 | 3.5 | 0.00 | 0.00 | 0.00 | 90 | 1012.2 |
| 20260510150556 | 60 | 0 | 0.0 | 2.6 | 0.00 | 0.00 | 0.00 | 91 | 1012.2 |
| 20260510150055 | 60 | 0 | 0.0 | 2.6 | 0.00 | 0.00 | 0.00 | 91 | 1012.2 |
| 20260510145556 | 60 | 0 | 0.0 | 2.6 | 0.00 | 0.00 | 0.00 | 91 | 1012.1 |
| 20260510145055 | 60 | 306 | 0.0 | 2.6 | 0.00 | 0.00 | 0.00 | 91 | 1012.1 |
| 20260510144554 | 60 | 0 | 0.0 | 2.6 | 0.00 | 0.00 | 0.00 | 92 | 1012.1 |
| 20260510144055 | 59 | 42 | 0.9 | 2.6 | 0.00 | 0.00 | 0.00 | 92 | 1012.2 |
| 20260510143555 | 59 | 0 | 0.0 | 3.5 | 0.00 | 0.00 | 0.00 | 92 | 1012.1 |
| 20260510143055 | 59 | 0 | 0.0 | 3.5 | 0.00 | 0.00 | 0.00 | 92 | 1012.1 |
| 20260510142558 | 59 | 11 | 0.9 | 3.5 | 0.00 | 0.00 | 0.00 | 92 | 1012.0 |
| 20260510142100 | 59 | 33 | 0.9 | 2.6 | 0.00 | 0.00 | 0.00 | 92 | 1012.1 |
| 20260510141602 | 59 | 0 | 0.0 | 2.6 | 0.00 | 0.00 | 0.00 | 92 | 1012.0 |
| 20260510141056 | 59 | 318 | 0.0 | 2.6 | 0.00 | 0.00 | 0.00 | 92 | 1012.0 |
| 20260510140555 | 59 | 0 | 0.0 | 1.7 | 0.00 | 0.00 | 0.00 | 93 | 1012.0 |
| 20260510140056 | 59 | 0 | 0.0 | 3.5 | 0.00 | 0.00 | 0.00 | 93 | 1012.0 |
| 20260510135556 | 59 | 338 | 0.0 | 3.5 | 0.00 | 0.00 | 0.00 | 93 | 1011.9 |
| 20260510135056 | 59 | 13 | 0.0 | 3.5 | 0.00 | 0.00 | 0.00 | 93 | 1011.9 |
| 20260510134607 | 59 | 0 | 0.0 | 0.0 | 0.00 | 0.00 | 0.00 | 93 | 1011.8 |
| 20260510134058 | 59 | 0 | 0.0 | 2.6 | 0.00 | 0.00 | 0.00 | 93 | 1011.8 |
| 20260510133555 | 59 | 0 | 0.0 | 3.5 | 0.00 | 0.00 | 0.00 | 93 | 1011.8 |
| 20260510133110 | 59 | 339 | 0.9 | 4.3 | 0.00 | 0.00 | 0.00 | 93 | 1011.8 |
| 20260510132555 | 59 | 336 | 0.9 | 4.3 | 0.00 | 0.00 | 0.00 | 93 | 1011.8 |
| 20260510132058 | 59 | 0 | 0.9 | 3.5 | 0.00 | 0.00 | 0.00 | 93 | 1011.8 |
| 20260510131603 | 59 | 0 | 0.0 | 2.6 | 0.00 | 0.00 | 0.00 | 94 | 1011.7 |
| 20260510131056 | 58 | 0 | 0.0 | 2.6 | 0.00 | 0.00 | 0.00 | 94 | 1011.7 |
| 20260510130556 | 58 | 0 | 0.0 | 2.6 | 0.00 | 0.00 | 0.00 | 94 | 1011.7 |
| 20260510130055 | 58 | 0 | 0.9 | 2.6 | 0.00 | 0.00 | 0.00 | 94 | 1011.6 |
| 20260510125555 | 58 | 0 | 0.0 | 2.6 | 0.00 | 0.00 | 0.00 | 94 | 1011.7 |
| 20260510125056 | 58 | 0 | 0.0 | 1.7 | 0.00 | 0.00 | 0.00 | 94 | 1011.7 |
| 20260510124558 | 58 | 0 | 0.0 | 2.6 | 0.00 | 0.00 | 0.00 | 94 | 1011.8 |
| 20260510124056 | 58 | 0 | 0.9 | 2.6 | 0.00 | 0.00 | 0.00 | 94 | 1011.8 |
| 20260510123556 | 58 | 0 | 0.0 | 2.6 | 0.00 | 0.00 | 0.00 | 94 | 1011.7 |
| 20260510123102 | 58 | 0 | 0.0 | 2.6 | 0.00 | 0.00 | 0.00 | 94 | 1011.7 |
| 20260510122558 | 58 | 59 | 0.0 | 2.6 | 0.00 | 0.00 | 0.00 | 94 | 1011.8 |
| 20260510122055 | 58 | 61 | 0.0 | 1.7 | 0.00 | 0.00 | 0.00 | 95 | 1011.8 |
| 20260510121554 | 58 | 0 | 0.0 | 1.7 | 0.00 | 0.00 | 0.00 | 95 | 1011.8 |
| 20260510121055 | 58 | 0 | 0.0 | 0.0 | 0.00 | 0.00 | 0.00 | 95 | 1011.7 |
| 20260510120556 | 58 | 0 | 0.0 | 0.0 | 0.00 | 0.00 | 0.00 | 95 | 1011.7 |
| 20260510120056 | 58 | 0 | 0.0 | 1.7 | 0.00 | 0.00 | 0.00 | 95 | 1011.7 |
| 20260510115558 | 58 | 0 | 0.0 | 2.6 | 0.00 | 0.00 | 0.00 | 95 | 1011.7 |
| 20260510115055 | 58 | 0 | 0.9 | 2.6 | 0.00 | 0.00 | 0.00 | 95 | 1011.7 |
| 20260510114604 | 58 | 0 | 0.0 | 1.7 | 0.00 | 0.00 | 0.00 | 95 | 1011.7 |
| 20260510114056 | 58 | 0 | 0.0 | 1.7 | 0.00 | 0.00 | 0.00 | 95 | 1011.8 |
| 20260510113557 | 58 | 0 | 0.0 | 1.7 | 0.00 | 0.00 | 0.00 | 95 | 1011.8 |
| 20260510113055 | 58 | 49 | 0.0 | 1.7 | 0.00 | 0.00 | 0.00 | 95 | 1011.7 |
| 20260510112556 | 58 | 0 | 0.0 | 2.6 | 0.00 | 0.00 | 0.00 | 95 | 1011.7 |
| 20260510112056 | 58 | 0 | 0.0 | 2.6 | 0.00 | 0.00 | 0.00 | 95 | 1011.7 |
| 20260510111600 | 58 | 0 | 0.9 | 2.6 | 0.00 | 0.00 | 0.00 | 95 | 1011.6 |
| 20260510111055 | 58 | 0 | 0.0 | 2.6 | 0.00 | 0.00 | 0.00 | 95 | 1011.6 |
| 20260510110556 | 58 | 0 | 0.0 | 2.6 | 0.00 | 0.00 | 0.00 | 95 | 1011.6 |
| 20260510110055 | 58 | 113 | 0.0 | 3.5 | 0.00 | 0.00 | 0.00 | 95 | 1011.6 |
| 20260510105556 | 58 | 150 | 0.0 | 3.5 | 0.00 | 0.00 | 0.00 | 95 | 1011.7 |
| 20260510105056 | 57 | 163 | 0.0 | 1.7 | 0.00 | 0.00 | 0.00 | 95 | 1011.7 |
| 20260510104554 | 57 | 0 | 0.0 | 2.6 | 0.00 | 0.00 | 0.00 | 95 | 1011.8 |
| 20260510104058 | 57 | 0 | 0.9 | 2.6 | 0.00 | 0.00 | 0.00 | 95 | 1011.7 |
| 20260510103555 | 57 | 48 | 0.0 | 3.5 | 0.00 | 0.00 | 0.00 | 95 | 1011.7 |
| 20260510103058 | 57 | 42 | 0.0 | 3.5 | 0.00 | 0.00 | 0.00 | 95 | 1011.6 |
| 20260510102556 | 57 | 53 | 0.9 | 3.5 | 0.00 | 0.00 | 0.00 | 95 | 1011.7 |
| 20260510102056 | 57 | 65 | 0.9 | 1.7 | 0.00 | 0.00 | 0.00 | 95 | 1011.6 |
| 20260510101556 | 57 | 65 | 0.0 | 1.7 | 0.00 | 0.00 | 0.00 | 95 | 1011.5 |
| 20260510101056 | 57 | 65 | 0.9 | 1.7 | 0.00 | 0.00 | 0.00 | 94 | 1011.6 |
| 20260510100556 | 57 | 0 | 0.0 | 0.0 | 0.00 | 0.00 | 0.00 | 95 | 1011.6 |
| 20260510100055 | 57 | 0 | 0.0 | 0.0 | 0.00 | 0.00 | 0.00 | 95 | 1011.7 |
| 20260510095556 | 57 | 0 | 0.0 | 0.0 | 0.00 | 0.00 | 0.00 | 94 | 1011.8 |
| 20260510095056 | 57 | 0 | 0.0 | 0.0 | 0.00 | 0.00 | 0.00 | 94 | 1011.8 |
| 20260510094554 | 57 | 0 | 0.0 | 1.7 | 0.00 | 0.00 | 0.00 | 95 | 1011.9 |
| 20260510094058 | 57 | 0 | 0.0 | 1.7 | 0.00 | 0.00 | 0.00 | 94 | 1011.9 |
| 20260510093555 | 57 | 67 | 0.0 | 2.6 | 0.00 | 0.00 | 0.00 | 94 | 1011.8 |
| 20260510093055 | 57 | 54 | 0.0 | 2.6 | 0.00 | 0.00 | 0.00 | 94 | 1011.9 |
| 20260510092555 | 57 | 55 | 0.0 | 4.3 | 0.00 | 0.00 | 0.00 | 94 | 1011.8 |
| 20260510092057 | 57 | 0 | 1.7 | 4.3 | 0.00 | 0.00 | 0.00 | 94 | 1011.8 |
| 20260510091559 | 57 | 58 | 0.9 | 4.3 | 0.00 | 0.00 | 0.00 | 94 | 1011.8 |
| 20260510091056 | 57 | 65 | 1.7 | 4.3 | 0.00 | 0.00 | 0.00 | 94 | 1011.8 |
| 20260510090556 | 57 | 62 | 0.0 | 3.5 | 0.00 | 0.00 | 0.00 | 94 | 1011.8 |
| 20260510090100 | 57 | 55 | 0.9 | 3.5 | 0.00 | 0.00 | 0.00 | 93 | 1011.8 |
| 20260510085559 | 57 | 0 | 0.0 | 5.2 | 0.00 | 0.00 | 0.00 | 94 | 1011.8 |
| 20260510085056 | 57 | 118 | 1.7 | 5.2 | 0.00 | 0.00 | 0.00 | 93 | 1011.8 |
| 20260510084555 | 57 | 67 | 0.9 | 3.5 | 0.00 | 0.00 | 0.00 | 93 | 1011.8 |
| 20260510084056 | 58 | 50 | 1.7 | 3.5 | 0.00 | 0.00 | 0.00 | 93 | 1011.7 |
| 20260510083556 | 58 | 59 | 0.9 | 3.5 | 0.00 | 0.00 | 0.00 | 93 | 1011.7 |
| 20260510083057 | 58 | 86 | 0.0 | 2.6 | 0.00 | 0.00 | 0.00 | 93 | 1011.7 |
| 20260510082555 | 58 | 0 | 0.0 | 3.5 | 0.00 | 0.00 | 0.00 | 93 | 1011.8 |
| 20260510082055 | 58 | 58 | 1.7 | 3.5 | 0.00 | 0.00 | 0.00 | 93 | 1011.8 |
| 20260510081556 | 58 | 65 | 1.7 | 3.5 | 0.00 | 0.00 | 0.00 | 93 | 1011.9 |
| 20260510081056 | 58 | 0 | 0.0 | 1.7 | 0.00 | 0.00 | 0.00 | 93 | 1011.9 |
| 20260510080555 | 58 | 109 | 0.0 | 2.6 | 0.00 | 0.00 | 0.00 | 93 | 1012.0 |
| 20260510080054 | 58 | 97 | 0.0 | 3.5 | 0.00 | 0.00 | 0.00 | 93 | 1012.0 |
| 20260510075557 | 58 | 64 | 0.9 | 3.5 | 0.00 | 0.00 | 0.00 | 93 | 1012.1 |
| 20260510075055 | 58 | 0 | 0.0 | 0.0 | 0.00 | 0.00 | 0.00 | 93 | 1012.1 |
| 20260510074557 | 58 | 0 | 0.0 | 0.0 | 0.00 | 0.00 | 0.00 | 93 | 1012.2 |
| 20260510074056 | 58 | 0 | 0.0 | 0.0 | 0.00 | 0.00 | 0.00 | 93 | 1012.1 |
| 20260510073556 | 58 | 0 | 0.0 | 0.0 | 0.00 | 0.00 | 0.00 | 93 | 1012.2 |
| 20260510073112 | 58 | 0 | 0.0 | 0.0 | 0.00 | 0.00 | 0.00 | 93 | 1012.2 |
| 20260510072556 | 58 | 0 | 0.0 | 0.0 | 0.00 | 0.00 | 0.00 | 93 | 1012.2 |
| 20260510072056 | 58 | 0 | 0.0 | 0.0 | 0.00 | 0.00 | 0.00 | 93 | 1012.2 |
| 20260510071605 | 58 | 0 | 0.0 | 1.7 | 0.00 | 0.00 | 0.00 | 92 | 1012.2 |
| 20260510071055 | 58 | 0 | 0.0 | 1.7 | 0.00 | 0.00 | 0.00 | 92 | 1012.3 |
| 20260510070555 | 58 | 55 | 0.0 | 1.7 | 0.00 | 0.00 | 0.00 | 92 | 1012.2 |
| 20260510070056 | 58 | 86 | 0.0 | 1.7 | 0.00 | 0.00 | 0.00 | 92 | 1012.2 |
| 20260510065556 | 58 | 0 | 0.0 | 2.6 | 0.00 | 0.00 | 0.00 | 92 | 1012.2 |
| 20260510065056 | 58 | 0 | 0.9 | 2.6 | 0.00 | 0.00 | 0.00 | 92 | 1012.3 |
| 20260510064600 | 58 | 0 | 0.0 | 2.6 | 0.00 | 0.00 | 0.00 | 92 | 1012.2 |
| 20260510064056 | 58 | 61 | 0.9 | 2.6 | 0.00 | 0.00 | 0.00 | 92 | 1012.3 |
| 20260510063556 | 58 | 0 | 0.0 | 1.7 | 0.00 | 0.00 | 0.00 | 92 | 1012.2 |
| 20260510063103 | 58 | 0 | 0.9 | 1.7 | 0.00 | 0.00 | 0.00 | 92 | 1012.2 |
| 20260510062556 | 58 | 0 | 0.0 | 1.7 | 0.00 | 0.00 | 0.00 | 92 | 1012.2 |
| 20260510062056 | 58 | 0 | 0.0 | 2.6 | 0.00 | 0.00 | 0.00 | 92 | 1012.2 |
| 20260510061558 | 58 | 0 | 0.0 | 2.6 | 0.00 | 0.00 | 0.00 | 92 | 1012.1 |
| 20260510061059 | 59 | 77 | 0.9 | 2.6 | 0.00 | 0.00 | 0.00 | 92 | 1012.2 |
| 20260510060557 | 58 | 171 | 0.0 | 1.7 | 0.00 | 0.00 | 0.00 | 92 | 1012.2 |
| 20260510060059 | 59 | 0 | 0.0 | 1.7 | 0.00 | 0.00 | 0.00 | 92 | 1012.2 |
| 20260510055558 | 58 | 0 | 0.0 | 2.6 | 0.00 | 0.00 | 0.00 | 92 | 1012.2 |
| 20260510055056 | 59 | 0 | 0.9 | 2.6 | 0.00 | 0.00 | 0.00 | 92 | 1012.2 |
| 20260510054559 | 59 | 167 | 0.0 | 0.9 | 0.00 | 0.00 | 0.00 | 92 | 1012.2 |
| 20260510054056 | 58 | 0 | 0.0 | 1.7 | 0.00 | 0.00 | 0.00 | 92 | 1012.3 |
| 20260510053555 | 58 | 0 | 0.0 | 2.6 | 0.00 | 0.00 | 0.00 | 92 | 1012.3 |
| 20260510053107 | 58 | 69 | 0.0 | 2.6 | 0.00 | 0.00 | 0.00 | 92 | 1012.3 |
| 20260510052555 | 59 | 0 | 0.0 | 2.6 | 0.00 | 0.00 | 0.00 | 92 | 1012.3 |
| 20260510052055 | 59 | 0 | 0.9 | 2.6 | 0.00 | 0.00 | 0.00 | 92 | 1012.3 |
| 20260510051601 | 59 | 0 | 0.0 | 1.7 | 0.00 | 0.00 | 0.00 | 92 | 1012.2 |
| 20260510051057 | 59 | 0 | 0.0 | 0.0 | 0.00 | 0.00 | 0.00 | 92 | 1012.3 |
| 20260510050557 | 59 | 0 | 0.0 | 0.9 | 0.00 | 0.00 | 0.00 | 93 | 1012.2 |
| 20260510050059 | 59 | 0 | 0.0 | 0.9 | 0.00 | 0.00 | 0.00 | 93 | 1012.1 |
| 20260510045556 | 58 | 0 | 0.0 | 0.0 | 0.00 | 0.00 | 0.00 | 93 | 1012.1 |
| 20260510045057 | 58 | 0 | 0.0 | 0.0 | 0.00 | 0.00 | 0.00 | 93 | 1012.2 |
| 20260510044554 | 58 | 0 | 0.0 | 0.0 | 0.00 | 0.00 | 0.00 | 93 | 1012.1 |
| 20260510044057 | 58 | 0 | 0.0 | 0.0 | 0.00 | 0.00 | 0.00 | 93 | 1012.1 |
| 20260510043648 | 58 | 0 | 0.0 | 1.7 | 0.00 | 0.00 | 0.00 | 93 | 1012.0 |
| 20260510043108 | 58 | 0 | 0.0 | 2.6 | 0.00 | 0.00 | 0.00 | 93 | 1011.9 |
| 20260510042555 | 58 | 0 | 0.0 | 2.6 | 0.00 | 0.00 | 0.00 | 93 | 1011.9 |
| 20260510042055 | 58 | 11 | 0.0 | 1.7 | 0.00 | 0.00 | 0.00 | 93 | 1011.9 |
| 20260510041558 | 58 | 0 | 0.0 | 1.7 | 0.00 | 0.00 | 0.00 | 93 | 1012.0 |
| 20260510041056 | 58 | 0 | 0.0 | 3.5 | 0.00 | 0.00 | 0.00 | 93 | 1011.9 |
| 20260510040556 | 58 | 309 | 0.0 | 3.5 | 0.00 | 0.00 | 0.00 | 93 | 1011.9 |
| 20260510040109 | 58 | 298 | 1.7 | 3.5 | 0.00 | 0.00 | 0.00 | 92 | 1011.9 |
| 20260510035556 | 58 | 0 | 0.0 | 6.1 | 0.00 | 0.00 | 0.00 | 93 | 1011.8 |
| 20260510035055 | 58 | 240 | 1.7 | 6.1 | 0.00 | 0.00 | 0.00 | 92 | 1011.9 |
| 20260510034600 | 58 | 272 | 1.7 | 6.1 | 0.00 | 0.00 | 0.00 | 92 | 1011.8 |
| 20260510034055 | 58 | 269 | 1.7 | 6.1 | 0.00 | 0.00 | 0.00 | 92 | 1011.8 |
| 20260510033557 | 58 | 0 | 0.9 | 3.5 | 0.00 | 0.00 | 0.00 | 92 | 1011.7 |
| 20260510033101 | 58 | 263 | 0.0 | 4.3 | 0.00 | 0.00 | 0.00 | 92 | 1011.6 |
| 20260510032556 | 58 | 289 | 0.9 | 5.2 | 0.00 | 0.00 | 0.00 | 92 | 1011.6 |
| 20260510032056 | 58 | 314 | 1.7 | 5.2 | 0.00 | 0.00 | 0.00 | 92 | 1011.5 |
| 20260510031557 | 58 | 272 | 0.9 | 3.5 | 0.00 | 0.00 | 0.00 | 92 | 1011.5 |
| 20260510031055 | 58 | 205 | 0.0 | 4.3 | 0.00 | 0.00 | 0.00 | 92 | 1011.4 |
| 20260510030555 | 58 | 0 | 0.9 | 6.1 | 0.00 | 0.00 | 0.00 | 92 | 1011.2 |
| 20260510030056 | 59 | 165 | 2.6 | 6.1 | 0.00 | 0.00 | 0.00 | 92 | 1011.2 |
| 20260510025555 | 59 | 281 | 1.7 | 5.2 | 0.00 | 0.00 | 0.00 | 92 | 1011.2 |
| 20260510025056 | 59 | 272 | 0.0 | 4.3 | 0.00 | 0.00 | 0.00 | 92 | 1011.1 |
| 20260510024558 | 59 | 0 | 0.0 | 6.1 | 0.00 | 0.00 | 0.00 | 92 | 1011.1 |
| 20260510024056 | 59 | 284 | 2.6 | 7.0 | 0.00 | 0.00 | 0.00 | 91 | 1011.1 |
| 20260510023555 | 59 | 264 | 2.6 | 7.0 | 0.00 | 0.00 | 0.00 | 91 | 1010.9 |
| 20260510023055 | 59 | 176 | 3.5 | 7.0 | 0.00 | 0.00 | 0.00 | 91 | 1010.8 |
| 20260510022556 | 59 | 219 | 2.6 | 5.2 | 0.00 | 0.00 | 0.00 | 91 | 1010.8 |
| 20260510022056 | 59 | 250 | 0.9 | 7.0 | 0.00 | 0.00 | 0.00 | 91 | 1010.8 |
| 20260510021600 | 59 | 189 | 3.5 | 7.8 | 0.00 | 0.00 | 0.00 | 91 | 1010.8 |
| 20260510021056 | 59 | 198 | 3.5 | 7.8 | 0.00 | 0.00 | 0.00 | 91 | 1010.7 |
| 20260510020556 | 59 | 181 | 2.6 | 6.1 | 0.00 | 0.00 | 0.00 | 91 | 1010.6 |
| 20260510020055 | 59 | 219 | 0.9 | 5.2 | 0.00 | 0.00 | 0.00 | 91 | 1010.7 |
| 20260510015555 | 59 | 273 | 1.7 | 6.1 | 0.00 | 0.00 | 0.00 | 91 | 1010.6 |
| 20260510015059 | 59 | 166 | 2.6 | 7.8 | 0.00 | 0.00 | 0.00 | 91 | 1010.6 |
| 20260510014611 | 59 | 287 | 3.5 | 8.7 | 0.00 | 0.00 | 0.00 | 91 | 1010.6 |
| 20260510014055 | 59 | 276 | 4.3 | 8.7 | 0.00 | 0.00 | 0.00 | 91 | 1010.6 |
| 20260510013558 | 59 | 267 | 4.3 | 9.6 | 0.00 | 0.00 | 0.00 | 91 | 1010.6 |
| 20260510013103 | 59 | 278 | 6.1 | 10.4 | 0.00 | 0.00 | 0.00 | 90 | 1010.7 |
| 20260510012555 | 60 | 275 | 5.2 | 10.4 | 0.00 | 0.00 | 0.00 | 89 | 1010.6 |
| 20260510012055 | 60 | 262 | 4.3 | 9.6 | 0.00 | 0.00 | 0.00 | 89 | 1010.6 |
| 20260510011557 | 60 | 275 | 6.1 | 11.3 | 0.00 | 0.00 | 0.00 | 89 | 1010.7 |
| 20260510011056 | 61 | 299 | 6.1 | 11.3 | 0.00 | 0.00 | 0.00 | 88 | 1010.6 |
| 20260510010556 | 61 | 200 | 5.2 | 9.6 | 0.00 | 0.00 | 0.00 | 88 | 1010.6 |
| 20260510010054 | 61 | 173 | 4.3 | 9.6 | 0.00 | 0.00 | 0.00 | 87 | 1010.6 |
| 20260510005556 | 61 | 215 | 4.3 | 9.6 | 0.00 | 0.00 | 0.00 | 87 | 1010.6 |
| 20260510005056 | 62 | 175 | 5.2 | 9.6 | 0.00 | 0.00 | 0.00 | 86 | 1010.6 |
| 20260510004559 | 62 | 187 | 4.3 | 9.6 | 0.00 | 0.00 | 0.00 | 86 | 1010.5 |
| 20260510004100 | 62 | 264 | 2.6 | 8.7 | 0.00 | 0.00 | 0.00 | 86 | 1010.4 |
| 20260510003556 | 62 | 172 | 4.3 | 8.7 | 0.00 | 0.00 | 0.00 | 85 | 1010.5 |
| 20260510003105 | 63 | 269 | 4.3 | 11.3 | 0.00 | 0.00 | 0.00 | 85 | 1010.4 |
| 20260510002555 | 63 | 215 | 5.2 | 11.3 | 0.00 | 0.00 | 0.00 | 84 | 1010.5 |
| 20260510002055 | 63 | 222 | 5.2 | 8.7 | 0.00 | 0.00 | 0.00 | 83 | 1010.6 |
| 20260510001555 | 64 | 171 | 3.5 | 10.4 | 0.00 | 0.00 | 0.00 | 84 | 1010.6 |
| 20260510001055 | 64 | 173 | 5.2 | 10.4 | 0.00 | 0.00 | 0.00 | 82 | 1010.7 |
| 20260510000556 | 64 | 228 | 4.3 | 12.2 | 0.00 | 0.00 | 0.00 | 83 | 1010.7 |
| 20260510000059 | 64 | 146 | 6.1 | 12.2 | 0.00 | 0.00 | 0.00 | 81 | 1010.7 |
| 20260509235556 | 65 | 269 | 4.3 | 10.4 | 0.00 | 0.00 | 0.00 | 82 | 1010.6 |
| 20260509235056 | 65 | 213 | 7.0 | 10.4 | 0.00 | 0.00 | 0.00 | 80 | 1010.7 |
| 20260509234558 | 66 | 171 | 2.6 | 8.7 | 0.00 | 0.00 | 0.00 | 79 | 1010.6 |
| 20260509234056 | 66 | 250 | 3.5 | 10.4 | 0.00 | 0.00 | 0.00 | 80 | 1010.6 |
| 20260509233600 | 66 | 227 | 4.3 | 10.4 | 0.00 | 0.00 | 0.00 | 80 | 1010.5 |
| 20260509233101 | 66 | 232 | 4.3 | 10.4 | 0.00 | 0.00 | 0.00 | 79 | 1010.5 |
| 20260509232559 | 66 | 162 | 2.6 | 10.4 | 0.00 | 0.00 | 0.00 | 79 | 1010.7 |
| 20260509232057 | 66 | 238 | 5.2 | 10.4 | 0.00 | 0.00 | 0.00 | 79 | 1010.6 |
| 20260509231558 | 66 | 214 | 3.5 | 11.3 | 0.00 | 0.00 | 0.00 | 80 | 1010.6 |